Find Meteosat 14

NORAD ID: 100530 Int'l Des: 2026-198 Owner: EUMET Country: I-EUM operational
別名: MTG-I2 spacetrack, celestrak

現在のビュー

3D地球を読み込み中...

About Meteosat 14

Meteosat 14 (NORAD 100530) is a satellite launched Aug 27, 2026 by EUMET of I-EUM. with a mass of 3800.00 kg.

次回通過

Passes for default location (London). Set your location on the main map for personalized predictions.

高度履歴

Loading altitude history...

軌道要素

1 A0530U 26198A 26255.93641939 .00000008 00000-0 00000-0 0 9996
2 A0530 1.0011 302.0442 0000289 171.6450 218.8825 1.00269753 211
Epoch: Sep 12, 2026 • Age: 6 hours

現在のステータス

高度 35785.7 km
遠地点 / 近地点 N/A
速度 3.07 km/s
衛星直下点 0.79°N, 3.52°E
打ち上げ日 Aug 27, 2026
運用期間 17 days
タイプ weather

技術仕様

分類 Payload
質量 3800.00 kg
乾燥質量 2500.00 kg
総質量 3800.00 kg
長さ 5.20 m
直径 2.30 m
スパン 10.00 m
形状 Box + 2 pan
製造者 THALES
バスタイプ MTG
フェーズステータス In Orbit
所有者/国 EUMET/I-EUM

Most Searched